Terug naar catalogus

MALLIGYONG-1

ActiefMilitairSSO
NORAD 58400·PAYLOAD·🇰🇵 North Korea

Gelanceerd Nov 21, 2023 vanaf Sohae Satellite Launching Station

Loading…

Volgende Passages (komende 24 uur)

TLE

VersSource: Space-Track

Epoch: Sep 14, 2026, 22:13 UTC

1 58400U 23179A   26257.92602625  .00002657  00000-0  11552-3 0  9990
2 58400  97.2858 136.8952 0010089  75.5965 284.6391 15.23075490156413

Volg MALLIGYONG-1 in realtime met AllMySat

Download on the App Store